LHA277 LFGJ-EDDM

Flight info

Callsign LHA277
Flight time 0h 56m
Altitude 30000
Route LFGJ/05 DCT KONIL Z63 SOSAL N871 DITON T103 BETOS DCT EDDM/BET26.I26R
Aircraft B738/M-SDE1E2FGIJ1RWYZ/S

Departure

Time 2026-05-04 07:23
Airport Dole Tavaux Airport (LFGJ)

Arrival

Time 2026-05-04 08:19
Airport Munich Airport (EDDM)
Time Latitude Longitude Altitude Speed Heading
2026-05-04 07:01 47.04274 5.42370 653 ft 0 kts 324°
2026-05-04 07:18 47.04278 5.42361 653 ft 3 kts 284°
2026-05-04 07:18 47.04240 5.42281 653 ft 18 kts 236°
2026-05-04 07:18 47.04202 5.42100 653 ft 19 kts 258°
2026-05-04 07:19 47.04149 5.41982 653 ft 18 kts 230°
2026-05-04 07:19 47.04115 5.41923 653 ft 16 kts 230°
2026-05-04 07:19 47.04044 5.41800 653 ft 15 kts 230°
2026-05-04 07:20 47.04029 5.41773 653 ft 15 kts 230°
2026-05-04 07:20 47.03988 5.41701 653 ft 13 kts 230°
2026-05-04 07:20 47.03932 5.41604 653 ft 12 kts 230°
2026-05-04 07:22 47.03521 5.41939 653 ft 38 kts 57°
2026-05-04 07:22 47.03747 5.42433 653 ft 89 kts 56°
2026-05-04 07:23 47.04273 5.43517 660 ft 168 kts 53°
2026-05-04 07:23 47.05002 5.44979 1530 ft 172 kts 52°
2026-05-04 07:23 47.05878 5.46087 2595 ft 170 kts 31°
2026-05-04 07:23 47.06907 5.47133 3185 ft 191 kts 47°
2026-05-04 07:24 47.07543 5.48985 3605 ft 220 kts 80°
2026-05-04 07:24 47.07438 5.51317 4006 ft 243 kts 109°
2026-05-04 07:24 47.06610 5.53527 4723 ft 254 kts 130°
2026-05-04 07:24 47.05467 5.55605 5614 ft 267 kts 130°
2026-05-04 07:25 47.04322 5.57796 6476 ft 276 kts 131°
2026-05-04 07:26 46.96028 5.73301 7030 ft 276 kts 131°
2026-05-04 07:27 46.94819 5.75551 7622 ft 283 kts 131°
2026-05-04 07:27 46.93617 5.77786 8916 ft 277 kts 131°
2026-05-04 07:27 46.92414 5.80019 9958 ft 282 kts 130°
2026-05-04 07:27 46.91191 5.82292 10943 ft 287 kts 131°
2026-05-04 07:28 46.89925 5.84638 11684 ft 302 kts 131°
2026-05-04 07:28 46.88584 5.87120 12258 ft 321 kts 131°
2026-05-04 07:28 46.87164 5.89760 12803 ft 338 kts 131°
2026-05-04 07:28 46.85692 5.92500 13551 ft 348 kts 130°
2026-05-04 07:29 46.84197 5.95325 14405 ft 354 kts 130°
2026-05-04 07:29 46.82677 5.98180 15274 ft 359 kts 131°
2026-05-04 07:29 46.81668 6.00064 15827 ft 362 kts 131°
2026-05-04 07:29 46.81152 6.01024 16106 ft 363 kts 131°
2026-05-04 07:30 46.80634 6.01986 16391 ft 364 kts 131°
2026-05-04 07:30 46.79171 6.04704 17099 ft 370 kts 131°
2026-05-04 07:30 46.77605 6.07603 17827 ft 375 kts 131°
2026-05-04 07:30 46.75985 6.10634 18583 ft 381 kts 131°
2026-05-04 07:31 46.74343 6.13709 19314 ft 385 kts 131°
2026-05-04 07:31 46.72679 6.16788 20013 ft 390 kts 132°
2026-05-04 07:33 46.61423 6.37372 24083 ft 418 kts 132°
2026-05-04 07:33 46.59600 6.40705 24661 ft 422 kts 131°
2026-05-04 07:33 46.58039 6.44350 25186 ft 432 kts 119°
2026-05-04 07:33 46.57021 6.48507 25713 ft 442 kts 107°
2026-05-04 07:34 46.56548 6.52962 26245 ft 449 kts 98°
2026-05-04 07:34 46.56446 6.57524 26725 ft 455 kts 93°
2026-05-04 07:34 46.56427 6.62134 27188 ft 458 kts 94°
2026-05-04 07:34 46.56345 6.66781 27656 ft 461 kts 95°
2026-05-04 07:35 46.56233 6.71449 28118 ft 463 kts 95°
2026-05-04 07:35 46.56114 6.76131 28651 ft 464 kts 95°
2026-05-04 07:35 46.56047 6.78841 29025 ft 462 kts 93°
2026-05-04 07:35 46.56110 6.82711 29501 ft 465 kts 85°
2026-05-04 07:36 46.56843 6.87299 29931 ft 471 kts 73°
2026-05-04 07:36 46.58240 6.91627 30023 ft 475 kts 60°
2026-05-04 07:38 46.72452 7.18446 30054 ft 498 kts 51°
2026-05-04 07:38 46.74625 7.22405 30053 ft 502 kts 51°
2026-05-04 07:38 46.78994 7.30354 30053 ft 502 kts 51°
2026-05-04 07:39 46.83376 7.38262 30053 ft 501 kts 51°
2026-05-04 07:39 46.87731 7.46206 30053 ft 500 kts 52°
2026-05-04 07:40 46.91718 7.53597 30053 ft 500 kts 52°
2026-05-04 07:40 46.96011 7.61594 30053 ft 500 kts 52°
2026-05-04 07:41 47.00312 7.69606 30053 ft 500 kts 51°
2026-05-04 07:41 47.04756 7.77720 30053 ft 500 kts 51°
2026-05-04 07:42 47.09078 7.85716 30053 ft 500 kts 51°
2026-05-04 07:42 47.13384 7.93736 30053 ft 500 kts 53°
2026-05-04 07:43 47.17072 8.02387 30055 ft 499 kts 62°
2026-05-04 07:43 47.20661 8.11100 30053 ft 498 kts 56°
2026-05-04 07:44 47.24432 8.19636 30053 ft 498 kts 58°
2026-05-04 07:44 47.28091 8.28319 30052 ft 498 kts 59°
2026-05-04 07:45 47.31166 8.37439 30053 ft 498 kts 69°
2026-05-04 07:45 47.33322 8.47130 30054 ft 497 kts 74°
2026-05-04 07:46 47.35443 8.56824 30053 ft 497 kts 72°
2026-05-04 07:46 47.37580 8.66511 30053 ft 496 kts 73°
2026-05-04 07:47 47.39568 8.75681 30053 ft 496 kts 73°
2026-05-04 07:49 47.47917 9.14515 30058 ft 495 kts 73°
2026-05-04 07:49 47.50022 9.24195 30053 ft 495 kts 72°
2026-05-04 07:50 47.52120 9.33873 30052 ft 495 kts 73°
2026-05-04 07:50 47.53133 9.38680 30050 ft 480 kts 73°
2026-05-04 07:50 47.54103 9.43303 30050 ft 463 kts 73°
2026-05-04 07:51 47.55977 9.52259 30052 ft 450 kts 73°
2026-05-04 07:51 47.56882 9.56594 29909 ft 448 kts 73°
2026-05-04 07:51 47.57750 9.61071 29604 ft 439 kts 78°
2026-05-04 07:52 47.58266 9.65465 29322 ft 427 kts 85°
2026-05-04 07:52 47.58440 9.69829 28852 ft 423 kts 91°
2026-05-04 07:52 47.58374 9.74143 28483 ft 417 kts 95°
2026-05-04 07:52 47.58188 9.78420 28046 ft 413 kts 96°
2026-05-04 07:53 47.57989 9.82701 27599 ft 410 kts 95°
2026-05-04 07:54 47.56795 10.11172 24522 ft 392 kts 95°
2026-05-04 07:55 47.56673 10.13836 24228 ft 391 kts 95°
2026-05-04 07:55 47.56486 10.17897 23780 ft 388 kts 95°
2026-05-04 07:55 47.56302 10.21870 23340 ft 386 kts 95°
2026-05-04 07:55 47.56120 10.25823 22902 ft 383 kts 95°
2026-05-04 07:56 47.55940 10.29753 22463 ft 381 kts 95°
2026-05-04 07:56 47.55782 10.33325 22065 ft 379 kts 95°
2026-05-04 07:56 47.55624 10.37207 21631 ft 376 kts 95°
2026-05-04 07:56 47.55456 10.41050 21214 ft 374 kts 95°
2026-05-04 07:57 47.55283 10.44882 20966 ft 372 kts 95°
2026-05-04 07:57 47.55106 10.48777 20713 ft 376 kts 95°
2026-05-04 07:57 47.55039 10.52670 20455 ft 382 kts 87°
2026-05-04 07:57 47.55519 10.56530 20210 ft 384 kts 74°
2026-05-04 07:58 47.56528 10.60186 19961 ft 382 kts 64°
2026-05-04 07:58 47.57892 10.63610 19706 ft 380 kts 57°
2026-05-04 07:58 47.59330 10.66880 19458 ft 378 kts 58°
2026-05-04 07:58 47.60716 10.70191 19208 ft 377 kts 59°
2026-05-04 07:59 47.62046 10.73486 18958 ft 374 kts 60°
2026-05-04 07:59 47.63397 10.76874 18702 ft 373 kts 60°
2026-05-04 07:59 47.64694 10.80132 18456 ft 372 kts 60°
2026-05-04 07:59 47.66018 10.83458 18202 ft 370 kts 60°
2026-05-04 08:00 47.67369 10.86707 17951 ft 369 kts 56°
2026-05-04 08:00 47.68990 10.89695 17697 ft 368 kts 47°
2026-05-04 08:00 47.70840 10.92303 17448 ft 366 kts 40°
2026-05-04 08:02 47.84541 11.08403 15713 ft 359 kts 38°
2026-05-04 08:02 47.86464 11.10694 15468 ft 358 kts 39°
2026-05-04 08:02 47.88450 11.13032 15438 ft 357 kts 38°
2026-05-04 08:03 47.90342 11.15316 15415 ft 357 kts 41°
2026-05-04 08:03 47.92077 11.18026 15414 ft 356 kts 51°
2026-05-04 08:03 47.93474 11.21088 15370 ft 355 kts 61°
2026-05-04 08:03 47.94644 11.24370 15361 ft 355 kts 63°
2026-05-04 08:04 47.95790 11.27621 15362 ft 356 kts 63°
2026-05-04 08:04 47.96934 11.30902 15328 ft 355 kts 63°
2026-05-04 08:04 47.98086 11.34209 14961 ft 356 kts 64°
2026-05-04 08:04 47.99230 11.37500 14458 ft 358 kts 64°
2026-05-04 08:05 48.00380 11.40822 13961 ft 359 kts 64°
2026-05-04 08:05 48.01525 11.44121 13462 ft 358 kts 64°
2026-05-04 08:05 48.02678 11.47437 12958 ft 357 kts 64°
2026-05-04 08:05 48.03829 11.50764 12451 ft 356 kts 65°
2026-05-04 08:06 48.04976 11.54078 11946 ft 354 kts 65°
2026-05-04 08:06 48.06094 11.57313 11453 ft 353 kts 64°
2026-05-04 08:06 48.07216 11.60572 10950 ft 352 kts 64°
2026-05-04 08:06 48.08337 11.63818 10448 ft 351 kts 64°
2026-05-04 08:08 48.15561 11.84446 8891 ft 314 kts 62°
2026-05-04 08:08 48.16588 11.87378 8743 ft 321 kts 62°
2026-05-04 08:10 48.23830 12.08617 5634 ft 276 kts 61°
2026-05-04 08:11 48.24685 12.11147 5320 ft 267 kts 62°
2026-05-04 08:11 48.26332 12.14964 5106 ft 260 kts 37°
2026-05-04 08:11 48.27955 12.15981 5041 ft 254 kts
2026-05-04 08:12 48.29730 12.15882 5008 ft 251 kts 352°
2026-05-04 08:12 48.31489 12.15617 5002 ft 251 kts 352°
2026-05-04 08:12 48.33224 12.15360 4999 ft 251 kts 352°
2026-05-04 08:12 48.34911 12.14731 4981 ft 250 kts 330°
2026-05-04 08:13 48.36105 12.12881 4992 ft 246 kts 295°
2026-05-04 08:13 48.36426 12.10469 5034 ft 222 kts 272°
2026-05-04 08:13 48.36425 12.08279 5001 ft 199 kts 271°
2026-05-04 08:13 48.36391 12.06265 4807 ft 184 kts 267°
2026-05-04 08:14 48.36293 12.04428 4588 ft 166 kts 265°
2026-05-04 08:14 48.36182 12.02770 4368 ft 152 kts 265°
2026-05-04 08:14 48.36072 12.01242 4172 ft 143 kts 264°
2026-05-04 08:16 48.35323 11.91413 2913 ft 142 kts 263°
2026-05-04 08:16 48.35208 11.89917 2726 ft 146 kts 263°
2026-05-04 08:16 48.35089 11.88377 2530 ft 146 kts 263°
2026-05-04 08:17 48.34973 11.86861 2335 ft 146 kts 263°
2026-05-04 08:17 48.34858 11.85374 2142 ft 146 kts 263°
2026-05-04 08:17 48.34742 11.83863 1952 ft 146 kts 263°
2026-05-04 08:17 48.34625 11.82346 1762 ft 146 kts 263°
2026-05-04 08:19 48.34574 11.77940 1495 ft 5 kts 320°
2026-05-04 08:19 48.34611 11.77911 1495 ft 0 kts 340°
2026-05-04 08:20 48.34626 11.77907 1495 ft 11 kts 352°
2026-05-04 08:20 48.34789 11.77872 1496 ft 33 kts 352°
2026-05-04 08:20 48.34972 11.77841 1495 ft 24 kts 354°
2026-05-04 08:20 48.35119 11.77826 1495 ft 20 kts 14°
2026-05-04 08:21 48.35189 11.77978 1495 ft 16 kts 85°
2026-05-04 08:21 48.35197 11.78121 1495 ft 7 kts 75°
2026-05-04 08:21 48.35227 11.78169 1495 ft 7 kts 24°
2026-05-04 08:21 48.35266 11.78198 1495 ft 6 kts 53°
2026-05-04 08:22 48.35270 11.78228 1495 ft 3 kts 85°
2026-05-04 08:22 48.35276 11.78306 1495 ft 0 kts 83°